| time (UTC) | temp C | wind direction | speed KPH | gust KPH | rain 1hr cm | rain 24hr cm | rain mn cm | humidity % | barometer mb |
| 20260504234517 | 5 | 274 | 4.8 | 19.3 | 0.00 | 0.74 | 0.48 | 87 | 1007.7 |
| 20260504234013 | 5 | 4 | 6.4 | 19.3 | 0.00 | 0.74 | 0.48 | 87 | 1007.7 |
| 20260504232510 | 5 | 149 | 6.4 | 17.7 | 0.00 | 0.74 | 0.48 | 86 | 1007.6 |
| 20260504232018 | 5 | 290 | 6.4 | 17.7 | 0.00 | 0.74 | 0.48 | 86 | 1007.4 |
| 20260504231521 | 5 | 269 | 6.4 | 22.5 | 0.00 | 0.74 | 0.48 | 85 | 1007.5 |
| 20260504231018 | 5 | 277 | 8.0 | 22.5 | 0.00 | 0.74 | 0.48 | 85 | 1007.3 |
| 20260504230511 | 5 | 233 | 4.8 | 17.7 | 0.00 | 0.74 | 0.48 | 84 | 1007.4 |
| 20260504230022 | 5 | 282 | 8.0 | 22.5 | 0.00 | 0.74 | 0.48 | 84 | 1007.2 |
| 20260504225510 | 5 | 113 | 6.4 | 22.5 | 0.00 | 0.81 | 0.48 | 83 | 1007.4 |
| 20260504223517 | 5 | 203 | 3.2 | 17.7 | 0.00 | 0.81 | 0.48 | 83 | 1007.2 |
| 20260504223010 | 5 | 201 | 8.0 | 17.7 | 0.00 | 0.81 | 0.48 | 83 | 1007.1 |
| 20260504222519 | 5 | 34 | 3.2 | 17.7 | 0.00 | 0.81 | 0.48 | 83 | 1007.0 |
| 20260504222010 | 5 | 235 | 6.4 | 20.9 | 0.00 | 0.81 | 0.48 | 82 | 1006.9 |
| 20260504221518 | 5 | 280 | 6.4 | 22.5 | 0.00 | 0.81 | 0.48 | 82 | 1006.8 |
| 20260504221010 | 5 | 309 | 4.8 | 22.5 | 0.00 | 0.81 | 0.48 | 82 | 1006.7 |
| 20260504220517 | 5 | 39 | 8.0 | 20.9 | 0.00 | 0.81 | 0.48 | 81 | 1006.6 |
| 20260504220015 | 6 | 231 | 6.4 | 17.7 | 0.00 | 0.81 | 0.48 | 81 | 1006.6 |
| 20260504214017 | 6 | 208 | 6.4 | 24.1 | 0.00 | 0.89 | 0.48 | 78 | 1006.3 |
| 20260504213510 | 6 | 273 | 6.4 | 24.1 | 0.00 | 0.89 | 0.48 | 77 | 1006.4 |
| 20260504213022 | 6 | 231 | 9.7 | 25.7 | 0.00 | 0.89 | 0.48 | 77 | 1006.5 |
| 20260504212511 | 7 | 127 | 8.0 | 25.7 | 0.00 | 0.89 | 0.48 | 76 | 1006.5 |
| 20260504210518 | 7 | 290 | 6.4 | 35.4 | 0.00 | 0.89 | 0.48 | 76 | 1006.3 |
| 20260504210010 | 7 | 205 | 9.7 | 35.4 | 0.00 | 0.89 | 0.48 | 75 | 1006.3 |
| 20260504205517 | 7 | 357 | 6.4 | 22.5 | 0.00 | 1.04 | 0.48 | 75 | 1006.2 |
| 20260504205015 | 7 | 209 | 9.7 | 27.4 | 0.00 | 1.04 | 0.48 | 75 | 1006.2 |
| 20260504204518 | 7 | 305 | 11.3 | 27.4 | 0.00 | 1.04 | 0.48 | 75 | 1006.1 |
| 20260504204021 | 7 | 295 | 9.7 | 22.5 | 0.00 | 1.04 | 0.48 | 74 | 1006.0 |
| 20260504202010 | 8 | 270 | 9.7 | 24.1 | 0.00 | 1.04 | 0.48 | 72 | 1005.8 |
| 20260504201523 | 8 | 249 | 8.0 | 30.6 | 0.00 | 1.04 | 0.48 | 71 | 1005.7 |
| 20260504201010 | 8 | 276 | 11.3 | 30.6 | 0.00 | 1.04 | 0.48 | 70 | 1005.5 |
| 20260504200518 | 8 | 189 | 8.0 | 22.5 | 0.00 | 1.04 | 0.48 | 70 | 1005.4 |
| 20260504200011 | 8 | 169 | 6.4 | 22.5 | 0.00 | 1.04 | 0.48 | 69 | 1005.3 |
| 20260504195518 | 8 | 278 | 8.0 | 22.5 | 0.00 | 1.40 | 0.48 | 69 | 1005.3 |
| 20260504195021 | 8 | 223 | 6.4 | 27.4 | 0.00 | 1.40 | 0.48 | 68 | 1005.2 |
| 20260504194518 | 9 | 225 | 11.3 | 27.4 | 0.00 | 1.40 | 0.48 | 67 | 1005.0 |
| 20260504194011 | 9 | 334 | 6.4 | 19.3 | 0.00 | 1.40 | 0.48 | 67 | 1005.0 |
| 20260504193522 | 9 | 13 | 6.4 | 22.5 | 0.00 | 1.40 | 0.48 | 69 | 1004.9 |
| 20260504193011 | 9 | 224 | 9.7 | 22.5 | 0.00 | 1.40 | 0.48 | 68 | 1004.9 |
| 20260504191017 | 9 | 263 | 8.0 | 29.0 | 0.00 | 1.40 | 0.48 | 69 | 1004.8 |
| 20260504190521 | 9 | 251 | 9.7 | 24.1 | 0.00 | 1.40 | 0.48 | 67 | 1004.7 |
| 20260504190023 | 9 | 236 | 9.7 | 25.7 | 0.00 | 1.40 | 0.48 | 67 | 1004.7 |
| 20260504185521 | 10 | 215 | 9.7 | 22.5 | 0.00 | 1.63 | 0.48 | 66 | 1004.7 |
| 20260504185017 | 10 | 217 | 8.0 | 25.7 | 0.00 | 1.63 | 0.48 | 68 | 1004.6 |
| 20260504184510 | 8 | 200 | 9.7 | 25.7 | 0.00 | 1.63 | 0.48 | 67 | 1004.5 |
| 20260504183010 | 10 | 27 | 8.0 | 27.4 | 0.00 | 1.63 | 0.48 | 64 | 1004.5 |
| 20260504182518 | 10 | 270 | 11.3 | 27.4 | 0.00 | 1.63 | 0.48 | 62 | 1004.4 |
| 20260504182010 | 11 | 241 | 16.1 | 27.4 | 0.00 | 1.63 | 0.48 | 56 | 1004.3 |
| 20260504181518 | 12 | 248 | 9.7 | 29.0 | 0.00 | 1.63 | 0.48 | 54 | 1004.2 |
| 20260504181021 | 15 | 255 | 12.9 | 29.0 | 0.00 | 1.63 | 0.48 | 43 | 1004.4 |
| 20260504180529 | 15 | 243 | 8.0 | 24.1 | 0.00 | 1.63 | 0.48 | 37 | 1004.1 |
| 20260504180010 | 15 | 278 | 11.3 | 30.6 | 0.00 | 1.63 | 0.48 | 36 | 1004.1 |
| 20260504174011 | 15 | 205 | 6.4 | 25.7 | 0.00 | 1.85 | 0.48 | 37 | 1004.0 |
| 20260504173518 | 14 | 307 | 11.3 | 29.0 | 0.00 | 1.85 | 0.48 | 37 | 1004.1 |
| 20260504173022 | 14 | 311 | 11.3 | 30.6 | 0.00 | 1.85 | 0.48 | 37 | 1004.1 |
| 20260504172518 | 14 | 169 | 14.5 | 30.6 | 0.00 | 1.85 | 0.48 | 36 | 1004.1 |
| 20260504172011 | 14 | 278 | 8.0 | 29.0 | 0.00 | 1.85 | 0.48 | 38 | 1004.1 |
| 20260504171519 | 13 | 270 | 9.7 | 29.0 | 0.00 | 1.85 | 0.48 | 38 | 1003.9 |
| 20260504171011 | 13 | 281 | 11.3 | 43.5 | 0.00 | 1.85 | 0.48 | 37 | 1003.9 |
| 20260504151019 | 12 | 278 | 8.0 | 37.0 | 0.00 | 2.08 | 0.48 | 62 | 1003.4 |
| 20260504150516 | 11 | 321 | 11.3 | 37.0 | 0.00 | 2.08 | 0.48 | 63 | 1003.2 |
| 20260504141019 | 10 | 315 | 9.7 | 24.1 | 0.00 | 2.08 | 0.48 | 72 | 1002.8 |
| 20260504140511 | 10 | 340 | 8.0 | 22.5 | 0.00 | 2.08 | 0.48 | 73 | 1002.8 |
| 20260504130511 | 6 | 338 | 9.7 | 22.5 | 0.00 | 2.08 | 0.48 | 84 | 1002.0 |
| 20260504110511 | 5 | 240 | 8.0 | 20.9 | 0.00 | 2.08 | 0.48 | 93 | 999.4 |
| 20260504100512 | 4 | 228 | 9.7 | 27.4 | 0.00 | 2.08 | 0.48 | 95 | 997.7 |
| 20260504081520 | 2 | 270 | 9.7 | 27.4 | 0.03 | 2.06 | 0.46 | 95 | 995.0 |
| 20260504081019 | 2 | 218 | 8.0 | 27.4 | 0.03 | 2.06 | 0.46 | 95 | 994.9 |
| 20260504080511 | 2 | 295 | 9.7 | 27.4 | 0.03 | 2.06 | 0.46 | 95 | 994.7 |
| 20260504050517 | 1 | 300 | 8.0 | 20.9 | 0.05 | 1.70 | 0.10 | 94 | 989.2 |
| 20260504050020 | 1 | 239 | 6.4 | 27.4 | 0.03 | 1.68 | 0.08 | 94 | 989.1 |
| 20260504045518 | 1 | 219 | 8.0 | 27.4 | 0.03 | 1.68 | 0.08 | 94 | 988.8 |
| 20260504045011 | 1 | 260 | 4.8 | 20.9 | 0.03 | 1.68 | 0.08 | 94 | 988.6 |
| 20260504044519 | 1 | 277 | 9.7 | 20.9 | 0.03 | 1.68 | 0.08 | 94 | 988.5 |
| 20260504044018 | 1 | 237 | 6.4 | 24.1 | 0.03 | 1.68 | 0.08 | 94 | 988.4 |
| 20260504043523 | 1 | 316 | 11.3 | 24.1 | 0.05 | 1.68 | 0.08 | 94 | 988.1 |
| 20260504043019 | 1 | 259 | 9.7 | 29.0 | 0.05 | 1.68 | 0.08 | 94 | 988.0 |
| 20260504042512 | 1 | 260 | 9.7 | 29.0 | 0.05 | 1.68 | 0.08 | 94 | 987.8 |
| 20260504042024 | 1 | 269 | 9.7 | 30.6 | 0.03 | 1.65 | 0.05 | 94 | 987.8 |
| 20260504041518 | 1 | 232 | 8.0 | 29.0 | 0.05 | 1.65 | 0.05 | 94 | 987.5 |
| 20260504041012 | 1 | 280 | 6.4 | 25.7 | 0.05 | 1.65 | 0.05 | 94 | 987.3 |
| 20260504040519 | 1 | 269 | 9.7 | 25.7 | 0.05 | 1.65 | 0.05 | 94 | 987.2 |
| 20260504040018 | 2 | 263 | 9.7 | 25.7 | 0.05 | 1.65 | 0.05 | 94 | 987.2 |
| 20260504035523 | 2 | 243 | 9.7 | 25.7 | 0.05 | 1.65 | 0.05 | 94 | 987.0 |
| 20260504035030 | 2 | 272 | 8.0 | 25.7 | 0.05 | 1.65 | 0.05 | 94 | 986.7 |
| 20260504034519 | 2 | 276 | 8.0 | 22.5 | 0.05 | 1.65 | 0.05 | 94 | 986.4 |
| 20260504034012 | 2 | 250 | 8.0 | 22.5 | 0.03 | 1.63 | 0.03 | 94 | 986.2 |
| 20260504033519 | 2 | 229 | 6.4 | 25.7 | 0.03 | 1.63 | 0.03 | 94 | 986.1 |
| 20260504033019 | 2 | 252 | 11.3 | 25.7 | 0.03 | 1.63 | 0.03 | 94 | 985.9 |
| 20260504032513 | 2 | 323 | 6.4 | 20.9 | 0.03 | 1.63 | 0.03 | 94 | 985.7 |
| 20260504032030 | 3 | 262 | 9.7 | 20.9 | 0.00 | 1.60 | 0.00 | 94 | 985.3 |
| 20260504031518 | 3 | 231 | 8.0 | 20.9 | 0.00 | 1.60 | 0.00 | 94 | 985.2 |
| 20260504031011 | 3 | 288 | 8.0 | 22.5 | 0.00 | 1.60 | 0.00 | 94 | 985.0 |
| 20260504030519 | 3 | 295 | 8.0 | 22.5 | 0.00 | 1.60 | 0.00 | 94 | 984.8 |
| 20260504030019 | 3 | 281 | 6.4 | 19.3 | 0.00 | 1.60 | 0.00 | 94 | 984.6 |
| 20260504025512 | 3 | 289 | 8.0 | 19.3 | 0.00 | 1.60 | 1.60 | 94 | 984.3 |
| 20260504025019 | 3 | 300 | 8.0 | 22.5 | 0.03 | 1.60 | 1.60 | 94 | 984.0 |
| 20260504024512 | 3 | 286 | 9.7 | 29.0 | 0.03 | 1.60 | 1.60 | 94 | 983.7 |
| 20260504024019 | 3 | 320 | 8.0 | 29.0 | 0.03 | 1.60 | 1.60 | 94 | 983.4 |
| 20260504023512 | 3 | 331 | 11.3 | 29.0 | 0.05 | 1.60 | 1.60 | 94 | 983.0 |
| 20260504023019 | 3 | 266 | 12.9 | 30.6 | 0.05 | 1.60 | 1.60 | 94 | 982.8 |
| 20260504022529 | 3 | 316 | 9.7 | 30.6 | 0.05 | 1.60 | 1.60 | 94 | 982.6 |
| 20260504022012 | 3 | 294 | 16.1 | 30.6 | 0.05 | 1.60 | 1.60 | 94 | 982.2 |
| 20260504021530 | 3 | 325 | 12.9 | 27.4 | 0.05 | 1.60 | 1.60 | 94 | 982.0 |
| 20260504021019 | 3 | 302 | 11.3 | 43.5 | 0.08 | 1.60 | 1.60 | 95 | 981.7 |
| 20260504020523 | 3 | 300 | 14.5 | 43.5 | 0.08 | 1.60 | 1.60 | 94 | 981.6 |
| 20260504020019 | 3 | 269 | 16.1 | 32.2 | 0.08 | 1.60 | 1.60 | 94 | 981.4 |
| 20260504015518 | 3 | 302 | 16.1 | 33.8 | 0.08 | 1.57 | 1.57 | 94 | 981.4 |
| 20260504015012 | 3 | 317 | 20.9 | 33.8 | 0.08 | 1.57 | 1.57 | 94 | 981.1 |
| 20260504014531 | 3 | 310 | 17.7 | 33.8 | 0.08 | 1.57 | 1.57 | 94 | 981.2 |
| 20260504014019 | 3 | 299 | 17.7 | 33.8 | 0.08 | 1.57 | 1.57 | 94 | 981.0 |
| 20260504013512 | 3 | 338 | 17.7 | 30.6 | 0.05 | 1.55 | 1.55 | 94 | 980.8 |
| 20260504013019 | 3 | 323 | 17.7 | 33.8 | 0.05 | 1.55 | 1.55 | 94 | 980.4 |
| 20260504012530 | 3 | 349 | 19.3 | 41.8 | 0.05 | 1.55 | 1.55 | 94 | 980.1 |
| 20260504012011 | 3 | 341 | 20.9 | 38.6 | 0.08 | 1.55 | 1.55 | 94 | 980.0 |
| 20260504011520 | 4 | 328 | 14.5 | 35.4 | 0.08 | 1.55 | 1.55 | 94 | 979.6 |
| 20260504011024 | 4 | 316 | 17.7 | 35.4 | 0.05 | 1.52 | 1.52 | 94 | 979.5 |
| 20260504010511 | 4 | 345 | 22.5 | 35.4 | 0.08 | 1.52 | 1.52 | 94 | 979.3 |
| 20260504010019 | 4 | 318 | 12.9 | 25.7 | 0.05 | 1.50 | 1.50 | 94 | 979.2 |
| 20260504005529 | 4 | 308 | 14.5 | 27.4 | 0.05 | 1.50 | 1.50 | 94 | 978.9 |
| 20260504005012 | 4 | 305 | 14.5 | 30.6 | 0.08 | 1.50 | 1.50 | 94 | 978.3 |
| 20260504004519 | 4 | 296 | 20.9 | 33.8 | 0.08 | 1.50 | 1.50 | 94 | 978.2 |
| 20260504004018 | 4 | 23 | 17.7 | 33.8 | 0.10 | 1.50 | 1.50 | 94 | 977.9 |
| 20260504003512 | 4 | 319 | 19.3 | 41.8 | 0.13 | 1.50 | 1.50 | 94 | 977.8 |
| 20260504003019 | 4 | 351 | 17.7 | 41.8 | 0.13 | 1.50 | 1.50 | 94 | 977.7 |
| 20260504002519 | 4 | 255 | 16.1 | 35.4 | 0.10 | 1.47 | 1.47 | 94 | 977.3 |
| 20260504002023 | 5 | 314 | 14.5 | 33.8 | 0.13 | 1.47 | 1.47 | 94 | 977.3 |
| 20260504001531 | 5 | 314 | 9.7 | 24.1 | 0.13 | 1.47 | 1.47 | 95 | 977.2 |
| 20260504001019 | 5 | 359 | 11.3 | 24.1 | 0.10 | 1.45 | 1.45 | 95 | 977.2 |
| 20260504000512 | 5 | 338 | 6.4 | 20.9 | 0.10 | 1.45 | 1.45 | 95 | 977.2 |
| 20260504000020 | 5 | 61 | 9.7 | 20.9 | 0.10 | 1.45 | 1.45 | 95 | 977.4 |
| 20260503235518 | 5 | 45 | 9.7 | 27.4 | 0.08 | 1.42 | 1.42 | 95 | 977.1 |
| 20260503235012 | 5 | 79 | 12.9 | 27.4 | 0.08 | 1.42 | 1.42 | 95 | 977.5 |